Regional Weather Roundup
Issued by NWS

Home | Current Version | Previous Version | Text Only | Print | Product List | Glossary Off
Versions: 1 2 3 4 5 6 7 8 9 10 11 12 13 14 15 16 17 18 19 20 21 22 23 24 25 26 27 28 29 30 31 32 33 34 35 36 37 38 39 40 41 42 43 44 45 46 47 48 49 50

000
ASUS43 KMKX 010411
RWRWI

WISCONSIN REGIONAL WEATHER ROUNDUP
NATIONAL WEATHER SERVICE MILWAUKEE/SULLIVAN WI
1000 PM CST SAT JAN 31 2015

NOTE: "FAIR" INDICATES FEW OR NO CLOUDS BELOW 12,000 FEET WITH NO
SIGNIFICANT WEATHER AND/OR OBSTRUCTIONS TO VISIBILITY.

WIZ001-002-006>008-014>016-023>028-010500-
NORTHWEST WISCONSIN

CITY           SKY/WX    TMP DP  RH WIND       PRES   REMARKS
SUPERIOR ARPT  CLOUDY    11   0  60 NE9       30.37R WCI  -2
ASHLAND        CLOUDY    16   8  71 NE13      30.32S WCI   2
HAYWARD        CLOUDY    13   4  67 NE8       30.26S WCI   2
SIREN          CLOUDY    16   5  62 E9        30.27S WCI   5
CUMBERLAND     CLOUDY    16   7  67 NE13      30.23R WCI   2
RICE LAKE      CLOUDY    17   8  66 NE9       30.25S WCI   6
CHETEK         CLOUDY    17   8  67 NE6       30.23S WCI   8
LADYSMITH      CLOUDY    17   9  70 NE9       30.24S WCI   6
EAU CLAIRE     CLOUDY    20   9  62 NE14      30.21R WCI   7
MENOMONIE      CLOUDY    21  11  64 NE15G21   30.21S WCI   8
NEW RICHMOND   CLOUDY    20  10  65 NE14G22   30.22R WCI   7
OSCEOLA        CLOUDY    21  11  63 E12       30.26R WCI   9
$$

WIZ003>005-009-010-017-018-010500-
NORTH CENTRAL WISCONSIN

CITY           SKY/WX    TMP DP  RH WIND       PRES   REMARKS
MANITOWISH WTR CLOUDY     9   3  76 NE7       30.23S WCI  -2
ARBOR VITAE    CLOUDY    12   4  69 NE6       30.23S WCI   3
WOODRUFF       CLOUDY    12   4  69 NE6       30.23S WCI   3
RHINELANDER    CLOUDY    12   5  73 NE6       30.21F WCI   3
EAGLE RIVER    CLOUDY    10   1  67 NE8       30.23R WCI  -2
LAND O LAKES   MOCLDY     8   3  79 NE9       30.24S WCI  -5
PHILLIPS       CLOUDY    12   4  70 NE12      30.22F WCI  -2
TOMAHAWK       CLOUDY    13   6  70 NE6       30.21F WCI   4
MEDFORD        CLOUDY    16   8  71 NE10G16   30.18S WCI   4
MERRILL        CLOUDY    16   7  69 NE9G16    30.21S WCI   4
$$

WIZ029-030-035-036-043>047-010500-
CENTRAL WISCONSIN

CITY           SKY/WX    TMP DP  RH WIND       PRES   REMARKS
WAUSAU         CLOUDY    18   9  68 NE12      30.19R WCI   5
MOSINEE        CLOUDY    21  14  73 NE16      30.20R WCI   7
MARSHFIELD     CLOUDY    23  13  65 NE10      30.17S WCI  12
STEVENS POINT  CLOUDY    23  16  73 NE9       30.18S WCI  13
WAUPACA        CLOUDY    26  18  72 E12G20    30.22R WCI  15
WAUTOMA        CLOUDY    27  19  71 E9        30.19S WCI  18
WISC RAPIDS    CLOUDY    26  16  65 NE8       30.19S WCI  18
CAMP DOUGLAS   CLOUDY    27  23  85 E7        30.17R WCI  20
$$

WIZ011>013-019>022-031-037>040-048>050-010500-
NORTHEAST WISCONSIN

CITY           SKY/WX    TMP DP  RH WIND       PRES   REMARKS
ANTIGO         CLOUDY    14   8  75 NE14G22   30.20S WCI  -1
SHAWANO        CLOUDY    21  13  70 NE15G22   30.26R WCI   8
OCONTO         CLOUDY    17   6  64 MISG      30.29S
STURGEON BAY   CLOUDY    16   5  62 NE16      30.30S WCI   0
GREEN BAY      CLOUDY    19  13  77 NE24G31   30.26S WCI   2
MANITOWOC      CLOUDY    24  17  74 NE13G20   30.24S WCI  12
APPLETON       CLOUDY    21  12  68 NE16G24   30.22S WCI   7
CLINTONVILLE   CLOUDY    23  16  74 E8        30.23S WCI  14
OSHKOSH        CLOUDY    24  18  77 NE16      30.19S WCI  11
$$

WIZ032>034-041-042-053>061-010500-
SOUTHWEST WISCONSIN

CITY           SKY/WX    TMP DP  RH WIND       PRES   REMARKS
LA CROSSE      LGT SNOW  28  23  81 E5        30.17R WCI  23
SPARTA         CLOUDY    28  20  73 E8        30.18R WCI  19
VIROQUA        CLOUDY    26  26 100 E9        30.12R WCI  16
BOSCOBEL       LGT SNOW  29  26  89 NE6       30.14S VSB 1   WCI  23
PRAIRIE DU CHI LGT SNOW  30  26  87 E6        30.12S WCI  24
PLATTEVILLE    CLOUDY    30  29  95 NE14      30.10S WCI  19
$$

WIZ056-057-062-063-064-067-068-010500-
SOUTH CENTRAL WISCONSIN

CITY           SKY/WX    TMP DP  RH WIND       PRES   REMARKS
REEDSBURG      LGT SNOW  26  24  92 E7        30.16R WCI  18
BARABOO/DELLS  LGT SNOW  25  22  89 E9        30.16S VSB 3/4 WCI  15
LONE ROCK      LGT SNOW  28  24  85 E12       30.16R VSB 1   WCI  18
MINERAL POINT  LGT SNOW  30  28  93 E9        30.10S WCI  22
MADISON        LGT SNOW  26  23  88 E12       30.15S FOG     WCI  16
MIDDLETON      CLOUDY    28  26  94 E8        30.16R VSB 1   WCI  20
WATERTOWN      LGT SNOW  26  26  96 E7        30.16R WCI  19
MONROE         LGT SNOW  30  30 100 NE8       30.11S WCI  23
JANESVILLE     LGT SNOW  32  30  93 E10       30.14S WCI  24
$$

WIZ051-052-058>065-066-070>072-010500-
SOUTHEAST WISCONSIN

CITY           SKY/WX    TMP DP  RH WIND       PRES   REMARKS
MILWAUKEE      LGT SNOW  30  26  85 NE10      30.18R FOG     WCI  21
WAUKESHA       LGT SNOW  27  25  93 NE7       30.17S WCI  19
MILWAUKEE/TIMM MIX PCPN  30  27  86 NE8       30.18S WCI  23
RACINE         LGT SNOW  31  28  89 NE7       30.18F VSB 1   WCI  24
BURLINGTON     LGT SNOW  27  26  95 E7        30.16S WCI  20
KENOSHA        LGT SNOW  30  28  92 NE8       30.16S FOG     WCI  22
FOND DU LAC    CLOUDY    27  18  69 NE10      30.18F WCI  17
SHEBOYGAN      CLOUDY    26  20  77 NE23G30   30.20S WCI  11
WEST BEND      CLOUDY    27  21  80 NE6       30.17S WCI  20
JUNEAU         CLOUDY    26  21  82 NE10      30.18R WCI  16
$$

LSZ147-162-010500-
LAKE SUPERIOR

STATION/POSITION TIME  TEMP    WIND        PRES    WAVE
                       AIR SEA DIR/SP/G            HT/PER
                 (UTC) (F)     (DEG/KT/KT) (MB)    (FT/S)
DEVILS ISLAND    0400   15      50/ 24/ 27 1029.6R
PORT WING        0340   17      50/ 16/ 23 1027.4S
SAXON HARBOR     0300   17      70/  8/ 15 1026.8
$$

LMZ867-665-643>646-010500-
LAKE MICHIGAN

STATION/POSITION TIME  TEMP    WIND        PRES    WAVE
                       AIR SEA DIR/SP/G            HT/PER
                 (UTC) (F)     (DEG/KT/KT) (MB)    (FT/S)
NORTHPORT PIER   0325   16     360/ 19/ 22 1026.4R
SISTER BAY       0313   15      10/ 18/ 25   N/A
KEWAUNEE LAKESHO 0300   22      30/ 20/ 25 1023.6R
SHEBOYGAN LAKESH 0400   27      30/ 25/ 28 1023.7F
PORT WASHINGTON  0300   30      40/ 13/ 15 1023.0
MILWAUKEE LAKESH 0300   31      40/ 16/ 18   N/A
KENOSHA   LAKESH 0400   30      50/ 12/ 14 1021.7S
$$

TC  - TEMPERATURE IN CELSIUS
VSB - VISIBILITY IN STATUTE MILES
WCI - WIND CHILL INDEX
HX  - HEAT INDEX



USA.gov is the U.S. government's official web portal to all federal, state and local government web resources and services.